Regional Weather Roundup
Issued by NWS

Home | Current Version | Previous Version | Graphics & Text | Print | Product List | Glossary On
Versions: 1 2 3 4 5 6 7 8 9 10 11 12 13 14 15 16 17 18 19 20 21 22 23 24 25 26 27 28 29 30 31 32 33 34 35 36 37 38 39 40 41 42 43 44 45 46 47 48 49
000
ASUS45 KBOU 240407
RWRCO

WEATHER ROUNDUP FOR COLORADO
NATIONAL WEATHER SERVICE DENVER/BOULDER CO
1000 PM MDT WED JUL 23 2014

NOTE: "FAIR" INDICATES FEW OR NO CLOUDS BELOW 12000 FEET WITH NO
SIGNIFICANT WEATHER AND/OR OBSTRUCTIONS TO VISIBILITY.

COZ001>005-013-030-031-240500-
...NORTHWEST COLORADO...

CITY           SKY/WX    TMP DP  RH WIND       PRES   REMARKS
CRAIG          CLOUDY    76  44  32 S15       30.23R
HAYDEN         MOCLDY    79  39  24 SE13      30.27S
MEEKER         MOCLDY    75  43  31 NE6       30.27R
MOUNT WERNER   NOT AVBL
STEAMBOAT SPGS MOCLDY    76  41  28 SE20G31   30.32S
WALDEN         MOCLDY    64  37  36 S3        30.46R
$$

COZ006>008-011-240500-
...WEST CENTRAL VALLEYS...

CITY           SKY/WX    TMP DP  RH WIND       PRES   REMARKS
GRAND JUNCTION PTCLDY    88  39  17 S9        30.10R
MONTROSE       MOCLDY    79  46  31 SE7       30.24R
EAGLE          MOCLDY    73  45  35 SE9       30.38R
RIFLE          MOCLDY    79  45  29 E18       30.21R
DELTA          MOCLDY    88  41  19 CALM      30.18R
NUCLA          MOCLDY    81  36  19 E10       30.26S
$$

COZ017>023-064>068-240500-
...SOUTHWEST COLORADO...

CITY           SKY/WX    TMP DP  RH WIND       PRES   REMARKS
DURANGO        CLOUDY    77  49  37 E20       30.39R
CORTEZ         CLEAR     83  49  30 S23G32    30.26R
PAGOSA SPRINGS TSTM      62  54  75 SW18G28   30.51R
TELLURIDE      CLOUDY    68  43  40 CALM      30.54R
WOLF CREEK PAS NOT AVBL
$$

COZ009-010-012-014-032>034-037-058>063-240500-
...CENTRAL COLORADO...

CITY           SKY/WX    TMP DP  RH WIND       PRES   REMARKS
ASPEN          CLOUDY    64  49  57 S6        30.46F
BUENA VISTA    MOCLDY    60  42  51 W5        30.53S
COPPER MTN     CLOUDY    54  37  54 S8        30.85F
BERTHOUD PASS  MOCLDY    46  34  61 MISG      30.88F
COTTONWOOD PAS MOCLDY    64  36  34 S3        30.68S
GUNNISON       MOCLDY    70  39  32 E12       30.48S
KREMMLING      MOCLDY    68  37  32 SE3       30.44S
LEADVILLE      CLOUDY    52  46  80 NE6       30.68R
MONARCH PASS   PTCLDY    50  37  62 E18       30.93S
SALIDA         MOCLDY   N/A N/A N/A W3        30.57R
SUNLIGHT       CLOUDY    57  43  58 E5        30.70S
WILKERSON PASS MOCLDY    55  34  44 N5        30.82R
$$

COZ069>075-240500-
...SAN LUIS VALLEY/SANGRE DE CRISTO MOUNTAINS...

CITY           SKY/WX    TMP DP  RH WIND       PRES   REMARKS
ALAMOSA        PTCLDY    65  48  54 S16       30.48R
LA VETA PASS   MOCLDY    54  46  76 W6        30.69S
SAGUACHE       PTCLDY    70  43  37 E7        30.50R
$$

COZ035-036-038>040-240500-
...NORTHERN COLORADO FRONT RANGE...

CITY           SKY/WX    TMP DP  RH WIND       PRES   REMARKS
DENVER INTL AP MOCLDY    77  47  34 S15G23    30.24R
DMNS CITY PARK   N/A     77  48  35 S17G24    30.21F
AURORA         MOCLDY    75  48  37 SW21G28   30.26F
FRONT RANGE AP NOT AVBL
ERIE MUNI ARPT MOCLDY    78  44  29 SW3       30.19F
BOULDER MUN AP MOCLDY    81  41  24 SW8       30.19F
CENTENNIAL     CLOUDY    71  49  45 SW10      30.29F
BROOMFIELD     MOCLDY    81  45  28 S17       30.24S
FORT COLLINS   PTCLDY    73  48  40 W6        30.20R
LONGMONT       PTCLDY    78  49  35 NW7       30.20R
$$

COZ041-046-047-076>085-087-088-240500-
...PIKES PEAK/PALMER DIVIDE AND SOUTHERN FOOTHILLS...

CITY           SKY/WX    TMP DP  RH WIND       PRES   REMARKS
COLO. SPRINGS  MOCLDY    73  47  39 N3        30.36R
A. F. ACADEMY  MOCLDY    65  48  54 N7        30.39R
ELLICOTT       MOCLDY    74  60  61 SE8       30.33F
FALCON         MOCLDY    70  46  41 CALM      30.42S
FORT CARSON    PTCLDY    71  48  44 NW6       30.33R
LIMON          MOCLDY    74  61  63 S12       30.27F
MONUMENT HILL  CLOUDY    66  43  42 SW7       30.41S
TRINIDAD       PTCLDY    72  43  35 CALM      30.31R
$$

COZ042>045-048>051-090-091-240500-
...NORTHEAST COLORADO...

CITY           SKY/WX    TMP DP  RH WIND       PRES   REMARKS
GREELEY ARPT   MOCLDY    70  52  52 SE9       30.18F
AKRON          PTCLDY    78  59  51 SE12      30.21S
BURLINGTON     CLOUDY    77  63  61 SE12      30.22R
WRAY             N/A     81  59  48 SE10      30.17R
STERLING       PTCLDY    77  66  69 S3        30.14S
HOLYOKE        CLEAR     73  63  68 SE14      30.17S
FORT MORGAN    PTCLDY    72  57  59 E5        30.18S
$$

COZ086-089-092>099-240500-
...SOUTHEAST COLORADO...

CITY           SKY/WX    TMP DP  RH WIND       PRES   REMARKS
PUEBLO         CLEAR     80  61  52 NW6       30.21R
LA JUNTA       CLEAR     82  54  37 SW8       30.18R
LAMAR          CLEAR     80  65  59 SE14      30.16R
SPRINGFIELD      N/A     72  54  53 S9        30.24R
$$



USA.gov is the U.S. government's official web portal to all federal, state and local government web resources and services.